• Join FlightAware (Why Join?)
  • Login
  • US Flag 
04:03PM EST


 

Airport Tracker/Info


-or-


 

Live Flight TrackerFlight Track Log ✈ ASQ6151 ✈ 29-Aug-2013 ✈ KGSO - KORD

Flight Track Log - Related Links

Times and Time Zones

All times are in EDT time to prevent confusion due to time zone crossing. See the ASQ6151 flight status page for this flight to view local times or setup timezone preferences in your user account.

Time Position Orientation Groundspeed Altitude Reporting Facility
EDT Latitude Longitude Course Direction KTS MPH feet Rate Location/Type
04:34PM 36.2439 -79.9275 307° West 268 308 5,900  Level Atlanta Center
04:35PM 36.2736 -80.0108 294° West 274 315 8,700 2,350 Climbing Atlanta Center
04:36PM 36.3366 -80.3665 307° West  Level FlightAware Approximate
04:36PM 36.3014 -80.0919 293° West 268 308 10,600  Level Atlanta Center
04:37PM 36.3874 -80.4511 307° West  Level FlightAware Approximate
04:37PM 36.3314 -80.1781 293° West 268 308 12,100  Level Atlanta Center
04:38PM 36.4356 -80.5379 302° West  Level FlightAware Approximate
04:38PM 36.3592 -80.2722 290° West 279 321 13,700  Level Atlanta Center
04:39PM 36.4805 -80.6276 302° West  Level FlightAware Approximate
04:39PM 36.3867 -80.3533 293° West 284 327 15,100  Level Atlanta Center
04:40PM 36.5330 -80.7106 307° West  Level FlightAware Approximate
04:40PM 36.4167 -80.4500 291° West 290 334 16,500  Level Atlanta Center
04:41PM 36.4631 -80.5358 304° West 290 334 17,600 1,100 Climbing Atlanta Center
04:42PM 36.5197 -80.6261 308° West 317 365 18,700 1,000 Climbing Atlanta Center
04:43PM 36.5744 -80.7169 307° West 328 377 19,600 950 Climbing Atlanta Center
04:44PM 36.6331 -80.8128 307° West 342 394 20,600 950 Climbing Atlanta Center
04:45PM 36.6983 -80.9164 308° West 342 394 21,500 950 Climbing Atlanta Center
04:46PM 36.7572 -81.0178 306° West 354 407 22,500 950 Climbing Atlanta Center
04:47PM 36.8117 -81.1117 306° West 354 407 23,400 918 Climbing Atlanta Center
04:50PM 36.9589 -81.3492 308° West 368 423 25,500 909 Climbing Indianapolis Center
04:51PM 37.0169 -81.4494 306° West 366 421 26,400 919 Climbing Indianapolis Center
04:52PM 37.0806 -81.5556 307° West 365 420 27,400 968 Climbing Indianapolis Center
04:53PM 37.1419 -81.6594 307° West 368 423 28,400 919 Climbing Indianapolis Center
04:54PM 37.2017 -81.7606 307° West 364 419 29,300 968 Climbing Indianapolis Center
04:55PM 37.2728 -81.8806 307° West 366 421 30,400 968 Climbing Indianapolis Center
04:56PM 37.3328 -81.9822 307° West 363 418 31,300 871 Climbing Indianapolis Center
04:57PM 37.3917 -82.0842 306° West 361 415 32,200 871 Climbing Indianapolis Center
04:58PM 37.4506 -82.1853 306° West 361 415 33,100 871 Climbing Indianapolis Center
04:59PM 37.5094 -82.2872 306° West 360 414 34,000 968 Climbing Indianapolis Center
05:00PM 37.5786 -82.4050 307° West 359 413 35,100 823 Climbing Indianapolis Center
05:01PM 37.6372 -82.5064 306° West 359 413 35,700 435 Climbing Indianapolis Center
05:02PM 37.6983 -82.6122 306° West 369 425 36,000 144 Climbing Indianapolis Center
05:03PM 37.7608 -82.7231 306° West 384 442 36,000  Level Indianapolis Center
05:04PM 37.8292 -82.8392 307° West 405 466 36,000  Level Indianapolis Center
05:05PM 37.9103 -82.9800 306° West 421 484 36,000  Level Indianapolis Center
05:06PM 38.0011 -83.0725 321° Northwest 423 487 36,000  Level Indianapolis Center
05:07PM 38.0914 -83.1614 322° Northwest 413 475 36,000  Level Indianapolis Center
05:08PM 38.1814 -83.2514 322° Northwest 412 474 36,000  Level Indianapolis Center
05:09PM 38.2714 -83.3414 322° Northwest 412 474 36,000  Level Indianapolis Center
05:10PM 38.3756 -83.4481 321° Northwest 412 474 36,000  Level Indianapolis Center
05:11PM 38.4658 -83.5394 322° Northwest 412 474 36,000  Level Indianapolis Center
05:12PM 38.5564 -83.6317 321° Northwest 414 476 36,000  Level Indianapolis Center
05:14PM 38.6464 -83.7236 321° Northwest 413 475 36,000  Level Indianapolis Center
05:15PM 38.7325 -83.8114 322° Northwest 417 480 36,000  Level Indianapolis Center
05:16PM 38.8411 -83.9250 321° Northwest 419 482 36,000  Level Indianapolis Center
05:17PM 38.9328 -84.0181 322° Northwest 420 483 36,000 -244 Level Indianapolis Center
05:18PM 39.0253 -84.1131 321° Northwest 423 487 35,500 -768 Descending Indianapolis Center
05:19PM 39.1156 -84.2083 321° Northwest 420 483 34,400 -1,248 Descending Indianapolis Center
05:20PM 39.2081 -84.3047 321° Northwest 424 488 32,900 -1,452 Descending Indianapolis Center
05:21PM 39.2983 -84.3972 322° Northwest 417 480 31,400 -1,452 Descending Indianapolis Center
05:22PM 39.3833 -84.4869 321° Northwest 398 458 29,900 -1,500 Descending Indianapolis Center
05:23PM 39.4906 -84.6000 321° Northwest 411 473 28,300 -919 Descending Indianapolis Center
05:24PM 39.5833 -84.6986 321° Northwest 424 488 28,000 -145 Descending Indianapolis Center
05:25PM 39.6744 -84.7947 321° Northwest 423 487 28,000  Level Indianapolis Center
05:26PM 39.7694 -84.8969 320° Northwest 420 483 28,000 -339 Level Indianapolis Center
05:27PM 39.8600 -84.9933 321° Northwest 422 486 27,300 -823 Descending Indianapolis Center
05:28PM 39.9517 -85.0911 321° Northwest 427 491 26,300 -629 Descending Indianapolis Center
05:29PM 40.0436 -85.1897 321° Northwest 430 495 26,000 -145 Descending Indianapolis Center
05:30PM 40.1333 -85.2883 320° Northwest 426 490 26,000  Level Indianapolis Center
05:31PM 40.2425 -85.4061 321° Northwest 427 491 26,000 -532 Level Indianapolis Center
05:32PM 40.3350 -85.5050 321° Northwest 429 494 24,900 -1,008 Descending Indianapolis Center
05:33PM 40.4261 -85.6042 320° Northwest 433 498 24,000 -655 Descending Chicago Center
05:34PM 40.5094 -85.7111 316° Northwest 425 489 23,600 -484 Descending Chicago Center
05:35PM 40.5814 -85.8342 308° West 429 494 23,000 -290 Descending Chicago Center
05:36PM 40.6531 -85.9550 308° West 422 486 23,000  Level Chicago Center
05:37PM 40.7236 -86.0761 308° West 422 486 23,000  Level Chicago Center
05:38PM 40.8086 -86.2239 307° West 421 484 23,000  Level Chicago Center
05:39PM 40.8814 -86.3478 308° West 424 488 23,000 -1,000 Level Chicago Center
05:41PM 41.0342 -86.6125 307° West 413 475 19,800 -1,645 Descending Indianapolis Center
05:42PM 41.0906 -86.7100 308° West 405 466 17,900 -2,136 Descending Chicago Center
05:43PM 41.1600 -86.8331 307° West 386 444 15,600 -2,160 Descending Chicago Center
05:44PM 41.2239 -86.9436 308° West 379 436 13,400 -1,872 Descending Chicago Center
05:45PM 41.2811 -87.0483 306° West 357 411 11,700 -1,161 Descending Chicago Center
05:47PM 41.3506 -87.1708 307° West 350 403 11,000 -339 Descending Chicago Center
05:48PM 41.4189 -87.2581 316° Northwest 346 398 11,000  Level Chicago Center
05:49PM 41.4889 -87.3428 318° Northwest 345 397 11,000 -145 Level Chicago Center
05:50PM 41.5547 -87.4156 320° Northwest 311 358 10,700 -1,065 Descending Chicago Center
05:51PM 41.6236 -87.4922 320° Northwest 278 320 8,800 -1,306 Descending Chicago Center
05:52PM 41.6822 -87.5572 320° Northwest 277 319 8,000 -387 Descending Chicago Center
05:53PM 41.7397 -87.6236 319° Northwest 275 316 8,000 -192 Level Chicago Center
05:54PM 41.7972 -87.6883 320° Northwest 275 316 7,600 -480 Descending Chicago Center
05:55PM 41.8519 -87.7561 317° Northwest 271 312 7,000 -290 Descending Chicago Center
05:56PM 41.8844 -87.8603 293° West 261 300 7,000  Level Chicago Center
05:57PM 41.8847 -87.9600 270° West 270 311 7,000 -145 Level Chicago Center
05:58PM 41.9000 -88.0564 282° West 267 307 6,700 -871 Descending Chicago Center
05:59PM 41.9014 -88.1494 271° West 256 295 5,200 -1,306 Descending Chicago Center
06:00PM 41.9428 -88.2058 315° West 240 276 4,000 -672 Descending Chicago Center
06:01PM 41.9675 -88.1408 63° Northeast 210 242 3,800 -624 Descending Chicago Center
06:02PM 41.9686 -88.0700 89° East 193 222 2,700 -983 Descending Chicago Center
06:03PM 41.9667 -88.0167 93° East 139 160 1,900 -789 Descending Chicago TRACON
06:04PM 41.9667 -87.9667 90° East 138 159 1,200 -700 Descending Chicago TRACON